Tracking 26922 objects as of 31-Jan-2023
HD Live streaming from Space Station
objects crossing your sky now

CZ-6A DEB

Track CZ-6A DEB now!
10-day predictions


NORAD ID: 54315
Int'l Code: 2022-151BJ
Perigee: 836.5 km
Apogee: 900.2 km
Inclination: 98.8 °
Period: 102.2 minutes
Semi major axis: 7239 km
RCS: Unknown
Launch date: November 11, 2022
Source: People's Republic of China (PRC)
Launch site: Taiyaun Space Center, China (TSC)

Note: This is SATELLITE DEBRIS
Your satellite tracking list
Your tracking list is empty




NASA's NSSDC Master Catalog

Two Line Element Set (TLE):
1 54315U 22151BJ  23031.50180247  .00000314  00000-0  20309-3 0  9990
2 54315  98.8329  40.0950 0043966 225.0786 134.6814 14.09466746 10774
Source of the keplerian elements: AFSPC